OSCAR 8

Satellite information

Favourite Embed

Satellite Type and Status

PAYLOADIN ORBIT

Key statistics

Satellite OSCAR 8 at a glance.

Uptime

17229

Days in orbit

Revolutions

≈ 14.0

Per day

Orbit

SSO

Sun Synchronous Orbit

Inclination

99.3

Latest

Satellite identification and parameters

Extended collection of information and parameters for OSCAR 8.

Object identification

Identified? True

Debris? False

Object name: OSCAR 8

International designator: 1978-026B

Object number (NORAD): 10703

Object ID (CCSDS): 10703

Country: UNITED STATES OF AMERICA (US)

Current information (Y/N): Y

RCS size: MEDIUM

Orbital parameters

Period: 102.879 minutes

Inclination: 99.297 deg

SMA: 7272.955 km

Apoapsis: 899.011 km

Periapsis: 890.628 km

RAAN: 109.1951 deg

Eccentricy: 0.0005763

Argument of periapsis: 315.0246 deg

Mean anomaly: 116.8485 deg

Mean motion: 13.99704781 rev/day

Mean motion (dot): -0.00000129 rev/day2

B* drag term: -0.000056371 1/REarth

Two-line elements (TLE)

Creation date: May 5, 2025, 2:11 a.m.

Reference frame: TEME

Reference center: EARTH

Epoch: May 4, 2025, 8:43 p.m. UTC

TLE line 0: 0 OSCAR 8

TLE line 1: 1 10703U 78026B 25124.86341850 -.00000129 00000-0 -56371-4 0 9993

TLE line 2: 2 10703 99.2970 109.1951 0005763 315.0246 116.8485 13.99704781406942

Live tracking on map

Real-time ground track for satellite OSCAR 8.

In-orbit conjunctions

There are no conjunctions computed for OSCAR 8, at the moment. Check back to stay up to date, as we update our databases every day.

Go to all conjunctions

Associated space launch

Earth observation satellite

OSCAR 8 was lifted into orbit during the mission ‘Delta 2910 | Landsat 3’, on board a Delta 2910 space rocket.

The launch took place on March 5, 1978, 5:54 p.m. from Space Launch Complex 2W.

For more information about the launch, click the button.

Launch to space Delta 2910 | Landsat 3
Delta 2910 | Landsat 3

Agency: N/A

Status: Launch Successful

Launch date: March 5, 1978, 5:54 p.m. UTC

Rocket: Delta 2910

Launch pad: Space Launch Complex 2W

Location: Vandenberg SFB, CA, USA

...

Latest news about this satellite

There are no fresh news available about this satellite. Check back as we update our databases every day.


Newsletter sign-up

Weekly statistics, charts and insights to help you stay on top of the space industry.